Location: Biltmore Gardens
(41.6070°N, 83.4666°W)
Time: 15:08:10
(UTC+00:00)

Terra - Pass Details

Date: 14 July 2020
Orbit: 701 x 703 km, 98.2° (Epoch: 13 August)

Event Time Altitude Azimuth Distance (km) Brightness Sun altitude
Exits shadow 02:18:08 11° 102° (ESE) 2,085 3.7 -11.4°
Maximum altitude 02:20:57 18° 63° (ENE) 1,703 3.6 -11.8°
Drops below altitude 10° 02:24:05 10° 22° (NNE) 2,179 4.7 -12.2°
Sets 02:26:59 0° 4° (N) 3,102 5.8 -12.6°
